Location: Philomena
(55.1756°N, 111.6233°W)
Time: 06:29:49
(UTC+00:00)

Envisat - Visible Passes

Search period start: 27 November 2021 00:00
Search period end: 07 December 2021 00:00
Orbit: 764 x 766 km, 98.2° (Epoch: 26 November)

Date Brightness Start Highest point End Pass type
(mag) Time Alt. Az. Time Alt. Az. Time Alt. Az.
27 Nov 6.0 01:14:17 10° WSW 01:16:49 14° W 01:19:21 10° NW visible
27 Nov 5.1 11:33:36 10° NE 11:37:46 25° E 11:41:54 10° SE visible
27 Nov 2.9 13:12:11 10° N 13:17:14 65° WNW 13:22:16 10° SSW visible
28 Nov 5.4 00:35:15 10° SW 00:39:26 25° W 00:43:38 10° NW visible
28 Nov 5.9 10:57:58 10° NE 11:00:23 13° E 11:02:48 10° ESE visible
28 Nov 3.2 12:35:16 10° NNE 12:40:23 70° ESE 12:45:27 10° S visible
28 Nov 3.9 14:14:52 10° N 14:19:01 26° NW 14:23:09 10° WSW visible
28 Nov 4.3 23:57:23 10° S 00:02:15 46° W 00:07:10 10° NNW visible
29 Nov 4.4 11:58:35 10° NNE 12:03:20 37° E 12:08:02 10° SSE visible
29 Nov 3.3 13:37:38 10° N 13:42:27 43° WNW 13:47:14 10° SW visible
30 Nov 5.9 01:01:53 10° SW 01:05:05 17° W 01:08:18 10° NW visible
30 Nov 5.4 11:22:17 10° NE 11:26:05 21° E 11:29:51 10° SE visible
30 Nov 2.9 13:00:36 10° NNE 13:05:42 78° WNW 13:10:47 10° SSW visible
30 Nov 4.3 14:40:36 10° N 14:44:00 18° NW 14:47:25 10° W visible
01 Dec 5.1 00:23:19 10° SSW 00:27:46 30° W 00:32:15 10° NNW visible
01 Dec 6.1 10:47:26 10° ENE 10:48:38 11° E 10:49:49 10° E visible
01 Dec 3.6 12:23:45 10° NNE 12:28:47 58° E 12:33:47 10° S visible
01 Dec 3.7 14:03:11 10° N 14:07:34 30° WNW 14:11:56 10° WSW visible
01 Dec 3.9 23:45:39 10° S 23:50:39 56° W 23:55:40 10° NNW visible
02 Dec 6.4 01:30:03 10° W 01:30:50 10° W 01:31:37 10° WNW visible
02 Dec 4.7 11:47:09 10° NNE 11:51:41 31° E 11:56:10 10° SSE visible
02 Dec 3.1 13:26:01 10° N 13:30:57 52° WNW 13:35:52 10° SW visible
03 Dec 5.8 00:49:40 10° SW 00:53:22 20° W 00:57:05 10° NW visible
03 Dec 5.6 11:11:04 10° NE 11:14:22 17° E 11:17:40 10° SE visible
03 Dec 2.9 12:49:01 10° NNE 12:54:09 88° ESE 12:59:15 10° SSW visible
03 Dec 4.2 14:28:50 10° N 14:32:37 21° NW 14:36:22 10° W visible
04 Dec 4.7 00:11:26 10° SSW 00:16:06 36° W 00:20:49 10° NNW visible
04 Dec 3.9 12:12:14 10° NNE 12:17:10 48° E 12:22:05 10° S visible
04 Dec 3.5 13:51:31 10° N 13:56:06 35° WNW 14:00:41 10° SW visible
04 Dec 3.5 23:33:59 10° S 23:39:03 68° WSW 23:44:09 10° NNW visible
05 Dec 6.1 01:16:49 10° WSW 01:19:04 13° W 01:21:20 10° NW visible
05 Dec 5.0 11:35:45 10° NE 11:40:00 26° E 11:44:14 10° SSE visible
05 Dec 2.9 13:14:23 10° N 13:19:26 62° WNW 13:24:26 10° SSW visible
06 Dec 5.5 00:37:36 10° SW 00:41:40 24° W 00:45:46 10° NW visible
06 Dec 5.8 10:59:58 10° NE 11:02:38 14° E 11:05:18 10° ESE visible
06 Dec 3.1 12:37:28 10° NNE 12:42:35 74° ESE 12:47:39 10° S visible
06 Dec 4.0 14:17:07 10° N 14:21:10 25° NW 14:25:14 10° WSW visible
